GW2922 Weather Reports


time (UTC)temp
F
wind
direction
speed
knots
gust
knots
rain 1hr
in
rain 24hr
in
rain mn
in
humidity
%
barometer
mb
20260509091803 50 124 0.9 0.9 0.00 0.00 0.00 84 1024.7
20260509091259 50 123 0.0 0.0 0.00 0.00 0.00 83 1024.7
20260509090757 50 123 0.0 0.0 0.00 0.00 0.00 83 1024.7
20260509090254 50 123 0.0 0.0 0.00 0.00 0.00 83 1025.1
20260509085751 50 123 0.0 0.0 0.00 0.00 0.00 83 1025.1
20260509085249 50 123 0.0 0.0 0.00 0.00 0.00 83 1025.1
20260509084745 50 123 0.0 0.0 0.00 0.00 0.00 83 1025.1
20260509084242 50 118 0.0 0.9 0.00 0.00 0.00 82 1025.1
20260509083740 50 118 0.0 0.9 0.00 0.00 0.00 82 1025.1
20260509083236 50 118 0.0 0.0 0.00 0.00 0.00 82 1025.1
20260509082733 50 118 0.0 0.9 0.00 0.00 0.00 82 1025.4
20260509082229 50 113 0.0 0.0 0.00 0.00 0.00 82 1025.4
20260509081726 50 112 0.0 0.0 0.00 0.00 0.00 81 1025.4
20260509081224 50 112 0.0 0.0 0.00 0.00 0.00 81 1025.4
20260509080722 50 112 0.0 0.0 0.00 0.00 0.00 81 1025.1
20260509080219 51 112 0.0 0.0 0.00 0.00 0.00 81 1025.4
20260509075718 51 112 0.0 0.0 0.00 0.00 0.00 81 1025.4
20260509075215 51 112 0.0 0.0 0.00 0.00 0.00 81 1025.4
20260509074711 51 105 0.0 0.0 0.00 0.00 0.00 81 1025.1
20260509074209 51 105 0.0 0.0 0.00 0.00 0.00 81 1025.4
20260509073705 51 105 0.0 0.0 0.00 0.00 0.00 81 1025.1
20260509073201 50 105 0.0 0.0 0.00 0.00 0.00 81 1025.1
20260509072658 50 105 0.0 0.0 0.00 0.00 0.00 81 1025.1
20260509072155 50 105 0.0 0.0 0.00 0.00 0.00 81 1025.1
20260509071652 50 105 0.0 0.0 0.00 0.00 0.00 81 1025.1
20260509071149 50 105 0.0 0.0 0.00 0.00 0.00 81 1025.1
20260509070646 50 105 0.0 0.0 0.00 0.00 0.00 81 1025.1
20260509070142 50 105 0.0 0.0 0.00 0.00 0.00 81 1025.1
20260509065638 50 105 0.0 0.0 0.00 0.00 0.00 81 1025.1
20260509065134 50 105 0.0 0.0 0.00 0.00 0.00 81 1025.1
20260509064631 50 105 0.0 0.0 0.00 0.00 0.00 81 1025.1
20260509064129 50 105 0.0 0.0 0.00 0.00 0.00 82 1025.1
20260509063625 50 105 0.0 0.0 0.00 0.00 0.00 81 1025.1
20260509063117 50 100 0.0 0.0 0.00 0.00 0.00 81 1025.1
20260509062614 50 100 0.0 0.0 0.00 0.00 0.00 81 1025.1
20260509062111 50 112 0.0 0.0 0.00 0.00 0.00 80 1025.1
20260509061608 50 96 0.0 0.0 0.00 0.00 0.00 79 1025.1
20260509061105 51 95 0.0 0.0 0.00 0.00 0.00 79 1025.1
20260509060603 51 96 0.0 0.0 0.00 0.00 0.00 79 1025.1
20260509060058 51 93 0.0 0.9 0.00 0.00 0.00 79 1025.1
20260509055554 51 95 0.0 0.9 0.00 0.00 0.00 79 1025.1
20260509055050 51 100 0.0 0.0 0.00 0.00 0.00 79 1025.1
20260509054547 51 100 0.0 0.0 0.00 0.00 0.00 79 1025.1
20260509054045 51 96 0.0 0.9 0.00 0.00 0.00 79 1025.1
20260509053543 51 93 0.0 0.0 0.00 0.00 0.00 78 1025.4
20260509053040 51 90 0.0 0.0 0.00 0.00 0.00 78 1025.1
20260509052538 51 111 0.0 1.7 0.00 0.00 0.00 79 1025.1
20260509052035 51 94 0.9 0.9 0.00 0.00 0.00 79 1025.1
20260509051533 51 95 0.0 0.0 0.00 0.00 0.00 79 1025.1
20260509051030 51 101 0.0 0.9 0.00 0.00 0.00 79 1025.1
20260509050527 51 92 0.0 1.7 0.00 0.00 0.00 79 1025.1
20260509050023 50 93 0.0 0.9 0.00 0.00 0.00 79 1025.1
20260509045520 51 94 0.0 0.9 0.00 0.00 0.00 79 1025.1
20260509045017 51 94 0.0 0.9 0.00 0.00 0.00 79 1025.1
20260509044515 51 74 0.0 0.0 0.00 0.00 0.00 79 1025.1
20260509044013 51 78 0.0 0.9 0.00 0.00 0.00 78 1024.7
20260509043508 51 99 0.0 0.0 0.00 0.00 0.00 78 1025.1
20260509043005 52 96 0.0 0.9 0.00 0.00 0.00 77 1025.1
20260509042501 52 98 0.0 0.0 0.00 0.00 0.00 77 1025.1
20260509041956 52 97 0.0 0.9 0.00 0.00 0.00 77 1024.7
20260509041454 52 97 0.0 0.0 0.00 0.00 0.00 77 1024.7
20260509040952 52 112 0.0 0.0 0.00 0.00 0.00 77 1024.7
20260509040450 52 96 0.0 0.0 0.00 0.00 0.00 77 1024.7
20260509035946 52 99 0.0 0.0 0.00 0.00 0.00 77 1024.7
20260509035443 52 89 0.0 1.7 0.00 0.00 0.00 76 1025.1
20260509034939 52 94 0.0 0.9 0.00 0.00 0.00 76 1024.7
20260509034437 52 82 0.9 1.7 0.00 0.00 0.00 76 1024.7
20260509033934 52 97 0.0 1.7 0.00 0.00 0.00 76 1024.7
20260509033431 52 60 0.0 0.9 0.00 0.00 0.00 76 1024.7
20260509032928 52 87 0.9 1.7 0.00 0.00 0.00 76 1024.7
20260509032425 53 112 0.0 0.0 0.00 0.00 0.00 76 1024.7
20260509031923 53 94 0.0 0.9 0.00 0.00 0.00 75 1024.7
20260509031420 53 75 0.0 0.9 0.00 0.00 0.00 75 1024.7
20260509030917 53 90 0.9 0.9 0.00 0.00 0.00 74 1024.7
20260509030415 53 80 0.0 0.9 0.00 0.00 0.00 74 1024.3
20260509025912 53 110 0.0 1.7 0.00 0.00 0.00 74 1024.3
20260509025408 53 95 0.0 0.9 0.00 0.00 0.00 73 1024.3
20260509024903 53 115 0.0 0.9 0.00 0.00 0.00 73 1024.7
20260509024359 53 317 0.9 1.7 0.00 0.00 0.00 73 1024.3
20260509023856 54 69 0.9 1.7 0.00 0.00 0.00 71 1024.3
20260509023354 54 103 0.9 1.7 0.00 0.00 0.00 70 1024.0
20260509022850 54 106 0.0 1.7 0.00 0.00 0.00 70 1024.0
20260509022347 54 97 0.9 2.6 0.00 0.00 0.00 69 1024.0
20260509021844 55 344 0.9 2.6 0.00 0.00 0.00 68 1024.0
20260509021341 55 79 0.9 5.2 0.00 0.00 0.00 67 1024.0
20260509020839 55 316 1.7 3.5 0.00 0.00 0.00 67 1024.3
20260509020337 56 355 0.9 1.7 0.00 0.00 0.00 68 1024.0
20260509015834 56 296 1.7 3.5 0.00 0.00 0.00 68 1024.3
20260509015332 56 197 0.9 2.6 0.00 0.00 0.00 68 1024.0
20260509014828 56 180 1.7 2.6 0.00 0.00 0.00 68 1024.0
20260509014326 56 85 0.0 2.6 0.00 0.00 0.00 69 1024.0
20260509013822 56 89 0.9 2.6 0.00 0.00 0.00 69 1024.0
20260509013319 57 32 1.7 2.6 0.00 0.00 0.00 68 1024.0
20260509012815 57 2 0.9 1.7 0.00 0.00 0.00 69 1024.0
20260509012312 57 97 0.9 1.7 0.00 0.00 0.00 69 1024.0
20260509011809 57 65 1.7 2.6 0.00 0.00 0.00 68 1024.0
20260509011306 58 106 0.0 0.9 0.00 0.00 0.00 67 1024.0
20260509010804 58 324 1.7 2.6 0.00 0.00 0.00 66 1024.0
20260509010301 57 271 0.9 1.7 0.00 0.00 0.00 68 1024.0
20260509005758 57 89 0.9 1.7 0.00 0.00 0.00 68 1024.0
20260509005256 57 144 0.0 0.9 0.00 0.00 0.00 68 1024.0
20260509004755 56 117 0.0 2.6 0.00 0.00 0.00 68 1024.0
20260509004252 57 82 0.9 0.9 0.00 0.00 0.00 68 1024.3
20260509003751 56 61 0.9 1.7 0.00 0.00 0.00 68 1024.0
20260509003248 58 17 1.7 2.6 0.00 0.00 0.00 67 1024.0
20260509002745 57 108 0.0 0.9 0.00 0.00 0.00 68 1024.0
20260509002242 57 144 0.0 0.0 0.00 0.00 0.00 68 1024.0
20260509001740 56 53 0.9 1.7 0.00 0.00 0.00 69 1024.3
20260509001235 56 280 1.7 3.5 0.00 0.00 0.00 68 1024.3
20260509000734 56 0 1.7 1.7 0.00 0.00 0.00 68 1024.3
20260509000231 56 81 0.9 2.6 0.00 0.00 0.00 69 1024.3
20260508235728 56 47 1.7 3.5 0.00 0.00 0.00 69 1024.3
20260508235224 56 68 0.9 2.6 0.00 0.00 0.00 69 1024.3
20260508234721 55 81 0.9 1.7 0.00 0.00 0.00 70 1024.0
20260508234217 56 50 0.9 0.9 0.00 0.00 0.00 69 1024.0
20260508233712 56 341 0.9 1.7 0.00 0.00 0.00 69 1024.0
20260508233209 56 99 0.0 0.9 0.00 0.00 0.00 69 1024.0
20260508232706 56 93 0.0 1.7 0.00 0.00 0.00 69 1024.0
20260508232203 56 315 0.9 1.7 0.00 0.00 0.00 68 1024.3
20260508231701 58 14 0.0 0.9 0.00 0.00 0.00 66 1024.0
20260508231157 57 112 0.0 1.7 0.00 0.00 0.00 67 1024.0
20260508230654 58 55 0.9 1.7 0.00 0.00 0.00 66 1024.0
20260508230150 57 67 0.9 0.9 0.00 0.00 0.00 67 1024.0
20260508225649 57 147 0.0 1.7 0.00 0.00 0.00 68 1024.0
20260508225144 56 100 0.9 1.7 0.00 0.00 0.00 69 1024.0
20260508224642 55 355 0.9 2.6 0.00 0.00 0.00 70 1023.6
20260508224140 56 34 0.0 1.7 0.00 0.00 0.00 69 1024.0
20260508223637 56 140 0.9 1.7 0.00 0.00 0.00 69 1023.6
20260508223134 56 205 1.7 2.6 0.00 0.00 0.00 69 1024.0
20260508222632 56 73 0.9 1.7 0.00 0.00 0.00 69 1023.6
20260508222128 56 83 0.9 1.7 0.00 0.00 0.00 69 1024.0
20260508221625 56 275 1.7 2.6 0.00 0.00 0.00 69 1024.0
20260508221120 56 125 0.9 0.9 0.00 0.00 0.00 69 1024.0
20260508220617 56 188 0.0 0.9 0.00 0.00 0.00 68 1024.0
20260508220114 56 97 0.0 0.9 0.00 0.00 0.00 69 1024.0
20260508215611 56 10 2.6 3.5 0.00 0.00 0.00 68 1024.0
20260508215107 56 75 0.9 2.6 0.00 0.00 0.00 69 1024.0
20260508214605 57 67 0.9 2.6 0.00 0.00 0.00 68 1023.6
20260508214101 56 99 0.0 0.0 0.00 0.00 0.00 69 1023.6
20260508213558 55 282 0.9 0.9 0.00 0.00 0.00 69 1024.0
20260508213054 56 112 0.9 0.9 0.00 0.00 0.00 69 1023.6
20260508212551 56 78 0.0 0.9 0.00 0.00 0.00 69 1023.6
20260508212047 57 78 0.0 0.9 0.00 0.00 0.00 68 1023.6
20260508211543 55 113 0.0 1.7 0.00 0.00 0.00 70 1023.6
20260508211039 56 103 0.9 1.7 0.00 0.00 0.00 70 1023.6
20260508210536 55 159 1.7 1.7 0.00 0.00 0.00 70 1023.6
20260508210034 56 164 0.0 0.9 0.00 0.00 0.00 69 1023.6
20260508205531 56 90 0.0 0.9 0.00 0.00 0.00 69 1023.3
20260508205027 56 39 0.0 0.9 0.00 0.00 0.00 70 1023.3
20260508204524 56 297 1.7 2.6 0.00 0.00 0.00 68 1023.3
20260508204019 56 110 0.0 0.9 0.00 0.00 0.00 70 1023.3
20260508203515 55 80 0.0 3.5 0.00 0.00 0.00 71 1023.3
20260508203012 54 169 0.0 3.5 0.00 0.00 0.00 72 1023.3
20260508202509 55 95 0.0 0.9 0.00 0.00 0.00 71 1023.3
20260508202005 54 112 0.0 1.7 0.00 0.00 0.00 73 1022.9
20260508201502 54 150 0.0 2.6 0.00 0.00 0.00 74 1022.9
20260508200959 53 71 0.0 1.7 0.00 0.00 0.00 74 1022.9
20260508200456 53 110 0.9 0.9 0.00 0.00 0.00 75 1023.3
20260508195950 53 116 0.0 1.7 0.00 0.00 0.00 76 1022.9
20260508195448 53 352 1.7 2.6 0.00 0.00 0.00 76 1022.9
20260508194944 53 342 0.9 1.7 0.00 0.00 0.00 76 1022.9
20260508194442 53 206 0.9 1.7 0.00 0.00 0.00 76 1023.3
20260508193938 53 128 0.0 0.9 0.00 0.00 0.00 75 1023.3
20260508193435 53 111 0.0 0.9 0.00 0.00 0.00 76 1023.3
20260508192932 53 116 0.0 0.9 0.00 0.00 0.00 75 1022.9
20260508192429 53 63 0.0 1.7 0.00 0.00 0.00 74 1022.9
20260508191926 53 109 0.0 0.9 0.00 0.00 0.00 74 1022.9
20260508191423 53 111 0.0 0.9 0.00 0.00 0.00 75 1022.6
20260508190920 53 122 0.0 0.0 0.00 0.00 0.00 75 1022.9
20260508190417 53 102 0.0 0.9 0.00 0.00 0.00 75 1022.6
20260508185913 52 102 0.0 0.9 0.00 0.00 0.00 76 1022.6
20260508185411 52 108 0.0 0.9 0.00 0.00 0.00 76 1022.6
20260508184908 52 110 0.0 0.9 0.00 0.00 0.00 76 1022.6
20260508184405 52 98 0.0 0.0 0.00 0.00 0.00 77 1022.6
20260508183902 52 105 0.9 5.2 0.00 0.00 0.00 76 1022.6
20260508183358 52 59 0.0 1.7 0.00 0.00 0.00 76 1022.6
20260508182854 52 94 0.0 1.7 0.00 0.00 0.00 77 1022.6
20260508182351 52 102 0.9 1.7 0.00 0.00 0.00 77 1022.3
20260508181846 52 212 1.7 1.7 0.00 0.00 0.00 77 1022.3
20260508181343 51 111 0.0 0.0 0.00 0.00 0.00 78 1022.3
20260508180840 51 71 0.9 1.7 0.00 0.00 0.00 77 1022.6
20260508180337 51 96 0.0 0.9 0.00 0.00 0.00 78 1022.6
20260508175833 51 123 0.0 1.7 0.00 0.00 0.00 79 1022.3
20260508175330 52 93 0.9 0.9 0.00 0.00 0.00 79 1022.3
20260508174828 52 63 0.9 0.9 0.00 0.00 0.00 78 1022.3
20260508174325 52 96 0.0 0.0 0.00 0.00 0.00 78 1022.3
20260508173821 52 85 0.0 0.0 0.00 0.00 0.00 78 1022.3
20260508173319 53 90 0.0 0.9 0.00 0.00 0.00 79 1021.9
20260508172814 53 136 0.0 0.9 0.00 0.00 0.00 79 1021.9
20260508172312 53 108 0.0 0.0 0.00 0.00 0.00 79 1021.9
20260508171808 53 92 0.0 0.9 0.00 0.00 0.00 79 1021.6
20260508171304 53 103 0.9 0.9 0.00 0.00 0.00 79 1021.9
20260508170801 53 169 0.0 1.7 0.00 0.00 0.00 79 1021.9
20260508170259 53 97 0.9 2.6 0.00 0.00 0.00 78 1021.9
20260508165755 53 113 0.0 0.9 0.00 0.00 0.00 78 1021.3
20260508165253 53 95 0.0 0.9 0.00 0.00 0.00 78 1021.3
20260508164743 53 159 1.7 2.6 0.00 0.00 0.00 79 1021.3
20260508164240 53 165 2.6 2.6 0.00 0.00 0.00 78 1021.3
20260508163738 53 153 0.9 1.7 0.00 0.00 0.00 79 1021.3
20260508163236 53 125 0.0 1.7 0.00 0.00 0.00 79 1021.3
20260508162731 53 200 3.5 3.5 0.00 0.00 0.00 78 1020.9
20260508162228 52 70 0.9 0.9 0.00 0.00 0.00 78 1020.9
20260508161725 52 104 0.0 0.9 0.00 0.00 0.00 78 1020.6
20260508161222 52 112 0.0 0.9 0.00 0.00 0.00 78 1020.9
20260508160720 52 118 0.0 1.7 0.00 0.00 0.00 79 1020.9
20260508160218 52 95 0.0 0.9 0.00 0.00 0.00 78 1020.6
20260508155714 52 125 0.9 2.6 0.00 0.00 0.00 78 1020.6
20260508155211 52 150 0.0 3.5 0.00 0.00 0.00 79 1020.6
20260508154708 52 80 0.9 2.6 0.00 0.00 0.00 78 1020.2
20260508154205 52 60 0.9 1.7 0.00 0.00 0.00 79 1020.6
20260508153702 52 129 0.0 1.7 0.00 0.00 0.00 79 1020.6
20260508153159 52 83 0.0 1.7 0.00 0.00 0.00 80 1020.6
20260508152655 52 300 2.6 2.6 0.00 0.00 0.00 80 1020.9
20260508152151 52 98 0.9 0.9 0.00 0.00 0.00 81 1020.9
20260508151648 51 10 1.7 2.6 0.00 0.00 0.00 82 1020.6
20260508151145 51 45 1.7 2.6 0.00 0.00 0.00 83 1020.6
20260508150642 50 120 0.9 1.7 0.00 0.00 0.00 84 1020.6
20260508150138 50 76 1.7 1.7 0.00 0.00 0.00 84 1020.6
20260508145634 50 279 0.9 2.6 0.00 0.00 0.00 85 1020.6
20260508145131 50 135 0.9 0.9 0.00 0.00 0.00 85 1020.6
20260508144628 50 275 0.9 1.7 0.00 0.00 0.00 85 1020.6
20260508144126 50 111 1.7 1.7 0.00 0.00 0.00 85 1020.6
20260508143623 50 239 0.9 1.7 0.00 0.00 0.00 85 1020.2
20260508143120 50 143 0.0 0.9 0.00 0.00 0.00 85 1020.2
20260508142617 50 208 0.0 0.9 0.00 0.00 0.00 85 1020.2
20260508142113 50 125 0.0 0.9 0.00 0.00 0.00 85 1020.2
20260508141610 50 141 0.9 1.7 0.00 0.00 0.00 85 1019.9
20260508141108 50 96 0.0 0.9 0.00 0.00 0.00 85 1019.9
20260508140605 50 117 0.0 0.0 0.00 0.00 0.00 85 1019.9
20260508135557 49 101 0.9 1.7 0.00 0.00 0.00 86 1019.9
20260508135053 49 324 0.0 1.7 0.00 0.00 0.00 86 1019.9
20260508134550 49 143 0.0 0.0 0.00 0.00 0.00 86 1019.9
20260508134047 49 96 0.9 1.7 0.00 0.00 0.00 86 1019.9
20260508133544 49 217 0.0 0.9 0.00 0.00 0.00 86 1019.6
20260508133041 49 89 1.7 2.6 0.00 0.00 0.00 86 1019.6
20260508132539 49 59 0.9 1.7 0.00 0.00 0.00 86 1019.6
20260508132035 49 153 0.0 0.9 0.00 0.00 0.00 87 1019.6
20260508131531 49 101 0.0 0.9 0.00 0.00 0.00 87 1019.6
20260508131028 49 218 0.9 2.6 0.00 0.00 0.00 87 1019.6
20260508130525 49 64 1.7 2.6 0.00 0.00 0.00 87 1019.2
20260508130021 49 307 1.7 2.6 0.00 0.00 0.00 87 1019.6
20260508125517 49 252 0.9 2.6 0.00 0.00 0.00 87 1019.6
20260508125015 49 99 0.9 3.5 0.00 0.00 0.00 87 1019.2
20260508124512 49 267 0.9 1.7 0.00 0.00 0.00 87 1019.2
20260508124009 49 6 2.6 2.6 0.00 0.00 0.00 87 1019.2
20260508123508 49 6 1.7 2.6 0.00 0.00 0.00 87 1019.6
20260508123004 49 284 0.9 1.7 0.00 0.00 0.00 87 1019.2
20260508122501 49 30 0.9 1.7 0.00 0.00 0.00 87 1018.9
20260508121958 49 336 1.7 2.6 0.00 0.00 0.00 87 1019.2
20260508121456 49 337 0.9 2.6 0.00 0.00 0.00 88 1018.9
20260508120954 49 357 0.9 5.2 0.00 0.00 0.00 88 1019.2
20260508120451 48 133 0.0 1.7 0.00 0.00 0.00 88 1019.2
20260508115949 48 358 1.7 2.6 0.00 0.00 0.00 89 1018.9
20260508115447 48 5 0.0 6.1 0.00 0.00 0.00 89 1019.2
20260508114943 48 120 0.0 1.7 0.00 0.00 0.00 90 1018.9
20260508114440 48 121 0.9 2.6 0.00 0.00 0.00 91 1018.9
20260508113937 48 99 0.0 1.7 0.00 0.00 0.00 91 1018.9
20260508113434 47 359 0.0 3.5 0.00 0.00 0.00 92 1018.9
20260508112931 47 123 0.0 0.0 0.00 0.00 0.00 92 1018.9
20260508112428 47 57 0.0 2.6 0.00 0.00 0.00 92 1018.9
20260508111925 47 93 0.0 0.9 0.00 0.00 0.00 92 1018.9
20260508111422 46 83 0.0 0.0 0.00 0.00 0.00 92 1018.5
20260508110919 46 75 0.0 0.0 0.00 0.00 0.00 92 1018.5
20260508110416 46 84 0.0 0.0 0.00 0.00 0.00 92 1018.5
20260508105910 46 81 0.0 0.0 0.00 0.00 0.00 92 1018.5
20260508105407 46 128 0.0 0.0 0.00 0.00 0.00 92 1018.5
20260508104904 46 116 0.0 0.0 0.00 0.00 0.00 91 1018.5
20260508104401 46 113 0.0 0.0 0.00 0.00 0.00 91 1018.5
20260508103858 46 114 0.0 0.0 0.00 0.00 0.00 91 1018.5
20260508103355 46 136 0.0 0.0 0.00 0.00 0.00 91 1018.9
20260508102852 46 116 0.0 0.0 0.00 0.00 0.00 91 1018.5
20260508102351 47 105 0.0 0.0 0.00 0.00 0.00 91 1018.5
20260508101848 47 109 0.0 0.0 0.00 0.00 0.00 91 1018.5
20260508101345 47 115 0.0 0.0 0.00 0.00 0.00 91 1018.5
20260508100842 47 116 0.0 0.0 0.00 0.00 0.00 91 1018.5
20260508100341 47 117 0.0 0.0 0.00 0.00 0.00 90 1018.5
20260508095836 47 123 0.0 0.0 0.00 0.00 0.00 90 1018.5
20260508095334 47 139 0.0 0.0 0.00 0.00 0.00 90 1018.5
20260508094831 47 116 0.0 0.0 0.00 0.00 0.00 90 1018.5
20260508094328 47 116 0.0 0.0 0.00 0.00 0.00 90 1018.5
20260508093825 48 115 0.0 0.0 0.00 0.00 0.00 90 1018.5
20260508093322 48 112 0.0 0.0 0.00 0.00 0.00 89 1018.5
20260508092820 48 116 0.0 0.0 0.00 0.00 0.00 89 1018.5
20260508092318 48 128 0.0 0.0 0.00 0.00 0.00 89 1018.5